Location: BGSU Observatory
(41.3799°N, 83.6397°W)
Time: 05:30:28
(UTC-04:00)

Tiangong 2 - Visible Passes

Search period start: 17 October 2018 00:00
Search period end: 27 October 2018 00:00
Orbit: 383 x 393 km, 42.8° (Epoch: 17 October)

Date Brightness Start Highest point End Pass type
(mag) Time Alt. Az. Time Alt. Az. Time Alt. Az.
17 Oct 3.7 05:31:53 19° ESE 05:31:53 19° ESE 05:32:57 10° ESE visible
17 Oct 2.7 07:04:11 12° WSW 07:06:18 21° SSW 07:08:50 10° SSE visible
18 Oct 2.4 06:08:53 30° S 06:08:53 30° S 06:11:04 10° SE visible
19 Oct 3.4 06:45:59 12° SW 06:46:13 12° SW 06:47:34 10° S visible
